Total_Precipitation_Accumulation
0.02 0.02 0.01 0.00 0.01 0.04 0.09 0.08 0.06 0.05 0.05 0.05 0.04 0.02 0.02 0.05 0.08 0.10 0.16 0.10 0.05 0.04 0.04 0.04 0.03 0.02 0.01 0.01 0.01 0.01 0.01 0.01 0.03 0.05 0.06 0.05 0.04 0.04 0.03 0.02 0.03 0.06 0.09
0.03 0.03 0.02 0.02 0.01 0.01 0.02 0.05 0.07 0.08 0.08 0.11 0.06 0.02 0.02 0.01 0.04 0.06 0.06 0.14 0.14 0.04 0.04 0.02 0.03 0.03 0.03 0.01 0.01 0.01 0.03 0.02 0.02 0.03 0.05 0.04 0.02 0.01 0.01 0.01 0.00 0.01 0.02
0.12 0.12 0.11 0.07 0.05 0.07 0.09 0.08 0.07 0.08 0.06 0.07 0.06 0.06 0.05 0.04 0.03 0.05 0.05 0.09 0.12 0.06 0.05 0.03 0.04 0.05 0.05 0.04 0.03 0.03 0.03 0.02 0.01 0.02 0.03 0.03 0.03 0.02 0.00 0.00 0.00 0.00 0.00
0.25 0.30 0.23 0.15 0.16 0.23 0.25 0.24 0.22 0.19 0.16 0.15 0.14 0.15 0.12 0.10 0.06 0.05 0.05 0.05 0.05 0.03 0.07 0.12 0.08 0.05 0.08 0.10 0.11 0.13 0.08 0.04 0.02 0.01 0.01 0.02 0.03 0.01 0.00 0.00 0.00 0.00 0.00
0.26 0.29 0.21 0.19 0.29 0.34 0.33 0.31 0.24 0.27 0.26 0.25 0.25 0.23 0.16 0.10 0.06 0.06 0.06 0.04 0.04 0.03 0.02 0.11 0.06 0.06 0.11 0.17 0.21 0.23 0.19 0.13 0.08 0.04 0.03 0.02 0.01 0.01 0.00 0.00 0.00 0.00 0.00
0.19 0.28 0.25 0.23 0.30 0.33 0.33 0.41 0.40 0.41 0.36 0.32 0.25 0.14 0.07 0.07 0.07 0.05 0.04 0.04 0.03 0.01 0.01 0.02 0.09 0.11 0.16 0.20 0.24 0.27 0.31 0.23 0.13 0.08 0.05 0.03 0.01 0.01 0.01 0.00 0.00 0.00 0.00
0.18 0.30 0.29 0.29 0.31 0.33 0.34 0.41 0.44 0.43 0.34 0.38 0.34 0.14 0.05 0.03 0.03 0.02 0.02 0.01 0.01 0.01 0.01 0.01 0.03 0.07 0.21 0.22 0.22 0.26 0.35 0.30 0.16 0.09 0.06 0.05 0.03 0.02 0.02 0.01 0.01 0.01 0.01
0.18 0.23 0.24 0.25 0.28 0.31 0.32 0.33 0.37 0.39 0.34 0.45 0.40 0.29 0.15 0.06 0.03 0.02 0.03 0.04 0.04 0.05 0.05 0.04 0.03 0.06 0.15 0.32 0.27 0.23 0.23 0.27 0.21 0.15 0.15 0.11 0.07 0.05 0.06 0.05 0.03 0.03 0.02
0.15 0.16 0.16 0.20 0.25 0.27 0.30 0.34 0.42 0.49 0.40 0.42 0.48 0.44 0.32 0.19 0.14 0.09 0.12 0.16 0.16 0.16 0.14 0.11 0.09 0.10 0.16 0.25 0.26 0.27 0.24 0.24 0.29 0.35 0.35 0.26 0.16 0.12 0.12 0.12 0.09 0.05 0.04
0.08 0.09 0.12 0.22 0.29 0.35 0.39 0.38 0.41 0.46 0.44 0.40 0.42 0.43 0.42 0.39 0.32 0.18 0.12 0.15 0.18 0.19 0.18 0.15 0.12 0.12 0.15 0.20 0.30 0.37 0.37 0.24 0.23 0.37 0.42 0.40 0.33 0.20 0.12 0.11 0.12 0.12 0.10
0.05 0.05 0.05 0.11 0.22 0.31 0.34 0.35 0.34 0.38 0.40 0.38 0.36 0.36 0.39 0.42 0.39 0.30 0.17 0.13 0.14 0.14 0.14 0.13 0.10 0.08 0.08 0.12 0.21 0.30 0.39 0.29 0.23 0.26 0.35 0.37 0.33 0.23 0.14 0.11 0.16 0.27 0.28
0.05 0.04 0.05 0.08 0.12 0.15 0.18 0.23 0.25 0.27 0.27 0.28 0.28 0.32 0.33 0.34 0.37 0.40 0.33 0.23 0.16 0.15 0.16 0.15 0.15 0.10 0.07 0.09 0.13 0.18 0.16 0.21 0.23 0.20 0.17 0.16 0.18 0.18 0.17 0.20 0.25 0.31 0.34
0.08 0.08 0.09 0.13 0.17 0.18 0.17 0.18 0.21 0.24 0.26 0.25 0.25 0.26 0.28 0.31 0.35 0.38 0.35 0.26 0.18 0.18 0.20 0.24 0.18 0.14 0.11 0.19 0.23 0.15 0.12 0.13 0.14 0.13 0.11 0.12 0.14 0.14 0.12 0.11 0.11 0.13 0.17
0.09 0.13 0.17 0.18 0.17 0.20 0.22 0.27 0.30 0.30 0.29 0.27 0.24 0.25 0.27 0.27 0.29 0.30 0.30 0.24 0.19 0.19 0.22 0.19 0.10 0.07 0.06 0.09 0.10 0.11 0.23 0.17 0.11 0.06 0.04 0.03 0.03 0.03 0.04 0.03 0.02 0.02 0.02
0.07 0.07 0.11 0.20 0.20 0.21 0.25 0.32 0.34 0.35 0.34 0.35 0.33 0.32 0.29 0.25 0.22 0.21 0.19 0.16 0.13 0.12 0.14 0.11 0.06 0.06 0.03 0.03 0.03 0.07 0.22 0.28 0.17 0.06 0.02 0.01 0.00 0.01 0.01 0.01 0.01 0.01 0.01
0.06 0.06 0.08 0.14 0.16 0.17 0.23 0.34 0.40 0.42 0.43 0.43 0.36 0.34 0.33 0.30 0.24 0.21 0.15 0.11 0.09 0.07 0.08 0.06 0.04 0.03 0.03 0.02 0.01 0.03 0.14 0.21 0.14 0.06 0.02 0.01 0.01 0.02 0.02 0.03 0.03 0.02 0.02
0.06 0.06 0.06 0.06 0.06 0.06 0.11 0.23 0.41 0.45 0.45 0.39 0.36 0.35 0.31 0.26 0.16 0.10 0.07 0.05 0.05 0.05 0.04 0.04 0.07 0.09 0.11 0.09 0.07 0.08 0.07 0.09 0.12 0.09 0.03 0.02 0.01 0.02 0.04 0.05 0.05 0.04 0.04
0.08 0.05 0.03 0.03 0.02 0.04 0.08 0.17 0.29 0.37 0.39 0.38 0.32 0.27 0.18 0.10 0.06 0.03 0.03 0.02 0.01 0.03 0.03 0.04 0.06 0.08 0.09 0.09 0.07 0.09 0.08 0.06 0.09 0.12 0.07 0.04 0.03 0.03 0.05 0.05 0.03 0.03 0.05
0.15 0.10 0.06 0.06 0.09 0.14 0.19 0.22 0.22 0.26 0.29 0.25 0.18 0.12 0.06 0.03 0.02 0.01 0.01 0.00 0.01 0.02 0.03 0.03 0.04 0.05 0.05 0.04 0.02 0.04 0.06 0.11 0.13 0.11 0.08 0.07 0.08 0.09 0.11 0.09 0.04 0.04 0.07
0.13 0.10 0.08 0.11 0.16 0.20 0.21 0.18 0.16 0.15 0.11 0.08 0.05 0.03 0.01 0.00 0.00 0.00 0.00 0.01 0.01 0.02 0.01 0.01 0.01 0.01 0.02 0.01 0.01 0.01 0.02 0.07 0.14 0.14 0.14 0.18 0.22 0.21 0.19 0.15 0.09 0.06 0.06
0.05 0.06 0.08 0.12 0.15 0.15 0.14 0.14 0.13 0.09 0.08 0.04 0.01 0.00 0.00 0.00 0.00 0.00 0.00 0.01 0.02 0.02 0.01 0.00 0.00 0.00 0.00 0.00 0.00 0.00 0.02 0.06 0.11 0.14 0.16 0.21 0.25 0.24 0.23 0.20 0.15 0.09 0.05
0.02 0.03 0.05 0.06 0.06 0.07 0.08 0.07 0.07 0.04 0.02 0.01 0.00 0.00 0.00 0.00 0.00 0.00 0.00 0.00 0.00 0.00 0.01 0.01 0.00 0.00 0.00 0.00 0.00 0.01 0.01 0.03 0.04 0.08 0.21 0.26 0.21 0.26 0.46 0.47 0.30 0.12 0.04
0.00 0.02 0.02 0.01 0.02 0.02 0.02 0.02 0.01 0.01 0.01 0.00 0.00 0.00 0.00 0.00 0.00 0.00 0.00 0.00 0.00 0.00 0.00 0.01 0.00 0.00 0.00 0.00 0.00 0.02 0.05 0.05 0.04 0.03 0.04 0.05 0.07 0.17 0.49 0.67 0.40 0.16 0.09
0.02 0.04 0.03 0.01 0.00 0.00 0.00 0.00 0.00 0.00 0.00 0.00 0.00 0.00 0.00 0.00 0.00 0.00 0.00 0.00 0.00 0.00 0.00 0.00 0.00 0.00 0.00 0.00 0.00 0.02 0.07 0.08 0.10 0.05 0.02 0.01 0.03 0.08 0.16 0.27 0.29 0.16 0.09
0.04 0.05 0.04 0.01 0.00 0.00 0.00 0.00 0.00 0.01 0.00 0.00 0.00 0.00 0.00 0.00 0.00 0.00 0.00 0.00 0.00 0.00 0.00 0.00 0.00 0.00 0.00 0.00 0.00 0.00 0.02 0.02 0.05 0.06 0.04 0.05 0.05 0.06 0.08 0.11 0.17 0.22 0.16
0.06 0.05 0.05 0.02 0.00 0.00 0.00 0.00 0.00 0.01 0.01 0.00 0.00 0.00 0.00 0.00 0.00 0.00 0.00 0.00 0.00 0.00 0.00 0.00 0.00 0.00 0.00 0.00 0.00 0.01 0.02 0.03 0.03 0.04 0.02 0.05 0.06 0.05 0.06 0.08 0.09 0.14 0.21